McMinnville, OR

4:06 AM PDT on June 29, 2017 (GMT -0700)
McMinnville Municipal

Weather History for KMMV - April, 2013

Change the Weather History Date:

Wednesday, April 3, 2013

  Actual Average Record
Temperature  
Mean Temperature 53 °F 49 °F  
Max Temperature 65 °F 59 °F 75 °F (1951)
Min Temperature 40 °F 39 °F 28 °F (1964)
Degree Days  
Heating Degree Days 12 16  
Month to date heating degree days 30 50  
Since 1 July heating degree days 3646 4001  
Cooling Degree Days 0 0  
Month to date cooling degree days 0 0  
Year to date cooling degree days 0 0  
Growing Degree Days 2 (Base 50)    
Moisture  
Dew Point 45 °F    
Average Humidity 82    
Maximum Humidity 100    
Minimum Humidity 63    
Precipitation  
Precipitation T in 0.12 in 0.71 in (1954)
Month to date precipitation T 0.39  
Year to date precipitation 4.60 14.96  
Snow  
Snow 0.00 in - - ()
Month to date snowfall 0.0  
Snow Depth 0.00 in    
Sea Level Pressure  
Sea Level Pressure 30.10 in    
Wind  
Wind Speed 2 mph (NW)    
Max Wind Speed 9 mph    
Max Gust Speed 23 mph    
Visibility 8 miles    
Events Fog    
T = Trace of Precipitation, MM = Missing Value Source: NWS Daily Summary

Daily Weather History Graph

Daily Weather History Graph

Search for Another Location

Airport or City:

Trip Planner

Search our weather history database for the weather conditions in past years. The results will help you decide how hot, cold, wet, or windy it might be!

Date:

Astronomy

Apr. 03, 2013 Rise Set
Actual Time 6:48 AM PDT 7:43 PM PDT
Civil Twilight 6:18 AM PDT 8:13 PM PDT
Nautical Twilight 5:43 AM PDT 8:49 PM PDT
Astronomical Twilight 5:05 AM PDT 9:26 PM PDT
Moon 2:51 AM PDT (4/3) 12:44 PM PDT (4/3)
Length of Visible Light 13h 54m
Length of Day
12h 54m
Last Quarter, 43% of the Moon is Illuminated
Apr 3
Last Quarter
Apr 10
New
Apr 18
First Quarter
Apr 25
Full
May 2
Last Quarter

Hourly Weather History & Observations

Time (PDT) Temp. Windchill Dew Point Humidity Pressure Visibility Wind Dir Wind Speed Gust Speed Precip Events Conditions
12:53 AM 46.9 °F - 43.0 °F 86% 30.18 in 10.0 mi WNW 3.5 mph - N/A   Clear
1:53 AM 46.0 °F 44.8 °F 43.0 °F 89% 30.18 in 10.0 mi WNW 3.5 mph - N/A   Clear
2:53 AM 46.0 °F 44.8 °F 43.0 °F 89% 30.18 in 10.0 mi WNW 3.5 mph - N/A   Clear
3:53 AM 43.0 °F - 41.0 °F 93% 30.18 in 10.0 mi Calm Calm - N/A   Clear
4:53 AM 43.0 °F - 41.0 °F 93% 30.17 in 10.0 mi Calm Calm - N/A   Clear
5:51 AM 41.0 °F - 39.2 °F 93% 30.16 in 1.8 mi Calm Calm - N/A   Partly Cloudy
5:53 AM 41.0 °F - 39.0 °F 93% 30.16 in 1.5 mi Calm Calm - N/A   Scattered Clouds
5:58 AM 41.0 °F 39.0 °F 39.2 °F 93% 30.16 in 0.8 mi West 3.5 mph - N/A   Mist
6:27 AM 39.2 °F 37.0 °F 39.2 °F 100% 30.16 in 0.2 mi WSW 3.5 mph - N/A Fog Fog
6:40 AM 39.2 °F 37.0 °F 37.4 °F 93% 30.16 in 0.2 mi West 3.5 mph - N/A Fog Fog
6:53 AM 41.0 °F - 39.0 °F 93% 30.16 in 0.5 mi Calm Calm - N/A Fog Fog
7:00 AM 41.0 °F - 39.2 °F 93% 30.16 in 0.2 mi Calm Calm - N/A Fog Fog
7:12 AM 42.8 °F - 39.2 °F 87% 30.16 in 1.2 mi Calm Calm - N/A   Overcast
7:20 AM 42.8 °F - 41.0 °F 93% 30.15 in 10.0 mi Calm Calm - N/A   Overcast
7:53 AM 43.0 °F - 42.1 °F 97% 30.15 in 10.0 mi Calm Calm - N/A   Overcast
8:53 AM 45.0 °F - 44.1 °F 97% 30.14 in 10.0 mi Calm Calm - N/A   Overcast
9:53 AM 48.9 °F - 46.0 °F 90% 30.15 in 5.0 mi Calm Calm - N/A   Overcast
10:24 AM 50.0 °F - 46.4 °F 87% 30.14 in 6.0 mi Calm Calm - N/A   Overcast
10:53 AM 53.1 °F - 46.9 °F 80% 30.13 in 9.0 mi Calm Calm - N/A   Mostly Cloudy
11:26 AM 55.4 °F - 48.2 °F 77% 30.14 in 10.0 mi ENE 3.5 mph - N/A   Scattered Clouds
11:53 AM 55.9 °F - 48.0 °F 75% 30.13 in 10.0 mi Calm Calm - N/A   Partly Cloudy
12:53 PM 59.0 °F - 48.9 °F 69% 30.12 in 10.0 mi Calm Calm - N/A   Clear
1:53 PM 59.0 °F - 48.9 °F 69% 30.10 in 10.0 mi Calm Calm - N/A   Clear
2:53 PM 60.1 °F - 51.1 °F 72% 30.08 in 10.0 mi SE 3.5 mph - N/A   Clear
3:53 PM 61.0 °F - 50.0 °F 67% 30.05 in 10.0 mi Calm Calm - N/A   Clear
4:53 PM 63.0 °F - 51.1 °F 65% 30.03 in 10.0 mi East 3.5 mph - N/A   Clear
5:53 PM 64.0 °F - 52.0 °F 65% 30.00 in 10.0 mi Calm Calm - N/A   Clear
6:53 PM 62.1 °F - 52.0 °F 70% 29.98 in 10.0 mi NW 3.5 mph - N/A   Clear
7:53 PM 61.0 °F - 51.1 °F 70% 29.97 in 10.0 mi NNW 3.5 mph - N/A   Clear
8:53 PM 59.0 °F - 52.0 °F 78% 29.96 in 10.0 mi NNW 3.5 mph - N/A   Scattered Clouds
9:53 PM 55.9 °F - 51.1 °F 84% 29.96 in 10.0 mi Calm Calm - N/A   Scattered Clouds
10:53 PM 57.0 °F - 51.1 °F 81% 29.94 in 10.0 mi NNW 5.8 mph - N/A   Partly Cloudy
11:53 PM 55.9 °F - 51.1 °F 84% 29.92 in 10.0 mi North 3.5 mph - N/A   Overcast